International Skating Union - Official Site

ISU World Cup Berlin
December 5-7, 2014

Draw | Lap Times | Index | World Cup

Referee: Ekaterina  PILSHCHIKOVA  (RUS)
Starter: Roland  STEENBECK  (GER)
StartTime: EndTime: Air Temp: Ice Temp: Humidity:
15:38 15:58 14.8 ℃ -6.5 ℃ 31.2%
Result Team Pursuit Ladies
Rankings as of Dec 7 2014 4:36PM
Rank: No.: Team: Nation: Time: Behind: Points:
Total 9
1 1 Netherlands (84) Ireen Wüst (75) Marrit Leenstra (73) Marije Joling (83) Jorien Voorhuis NED NED 2:59.720.5 - 18.51 - (18.5)
1.0 - 32.50 - (13.9)
1.5 - 46.58 - (14.0)
2.0 - 1:00.96 - (14.3)
2.5 - 1:15.40 - (14.4)
3.0 - 1:29.89 - (14.4)
3.5 - 1:44.75 - (14.8)
4.0 - 1:59.44 - (14.6)
4.5 - 2:14.37 - (14.9)
5.0 - 2:29.55 - (15.1)
5.5 - 2:44.61 - (15.0)
6.0 - 2:59.72 - (15.1)
100
2 5 Poland (91) Luiza Zlotkowska (90) Katarzyna Wozniak (88) Aleksandra Goss (87) Angelika Fudalej POL POL 3:03.830.5 - 19.40 - (19.3)
1.0 - 34.04 - (14.6)
1.5 - 48.23 - (14.1)
2.0 - 1:02.54 - (14.3)
2.5 - 1:17.34 - (14.8)
3.0 - 1:32.33 - (14.9)
3.5 - 1:47.67 - (15.3)
4.0 - 2:03.20 - (15.5)
4.5 - 2:18.34 - (15.1)
5.0 - 2:33.62 - (15.2)
5.5 - 2:48.75 - (15.1)
6.0 - 3:03.83 - (15.0)
4.11 80
3 2 Japan (52) Nana Takagi (50) Maki Tabata (45) Ayaka Kikuchi (48) Misaki Oshigiri JPN JPN 3:04.000.5 - 19.10 - (19.1)
1.0 - 33.75 - (14.6)
1.5 - 48.18 - (14.4)
2.0 - 1:02.64 - (14.4)
2.5 - 1:17.43 - (14.7)
3.0 - 1:32.26 - (14.8)
3.5 - 1:47.40 - (15.1)
4.0 - 2:02.37 - (14.9)
4.5 - 2:17.50 - (15.1)
5.0 - 2:32.74 - (15.2)
5.5 - 2:48.11 - (15.3)
6.0 - 3:04.00 - (15.8)
4.28 70
4 4 Canada (7) Kali Christ (6) Ivanie Blondin (14) Josie Spence (8) Kate Hanly CAN CAN 3:04.710.5 - 18.97 - (18.9)
1.0 - 33.27 - (14.3)
1.5 - 47.73 - (14.4)
2.0 - 1:02.57 - (14.8)
2.5 - 1:17.72 - (15.1)
3.0 - 1:32.99 - (15.2)
3.5 - 1:48.44 - (15.4)
4.0 - 2:03.91 - (15.4)
4.5 - 2:18.84 - (14.9)
5.0 - 2:33.86 - (15.0)
5.5 - 2:49.34 - (15.4)
6.0 - 3:04.71 - (15.3)
4.99 60
5 3 Germany (38) Claudia Pechstein (36) Bente Kraus (37) Isabell Ost (33) Roxanne Dufter GER GER 3:05.020.5 - 19.72 - (19.7)
1.0 - 34.62 - (14.8)
1.5 - 49.51 - (14.8)
2.0 - 1:04.24 - (14.7)
2.5 - 1:18.97 - (14.7)
3.0 - 1:33.84 - (14.8)
3.5 - 1:48.76 - (14.9)
4.0 - 2:03.94 - (15.1)
4.5 - 2:19.31 - (15.3)
5.0 - 2:34.76 - (15.4)
5.5 - 2:49.90 - (15.1)
6.0 - 3:05.02 - (15.1)
5.30 50
6 6 Russia (96) Olga Graf (100) Yuliya Skokova (99) Margarita Ryzhova (97) Aleksandra Kachurkina RUS RUS 3:07.030.5 - 19.66 - (19.6)
1.0 - 34.85 - (15.1)
1.5 - 49.80 - (14.9)
2.0 - 1:04.89 - (15.0)
2.5 - 1:19.96 - (15.0)
3.0 - 1:35.25 - (15.2)
3.5 - 1:50.75 - (15.5)
4.0 - 2:06.11 - (15.3)
4.5 - 2:21.50 - (15.3)
5.0 - 2:36.67 - (15.1)
5.5 - 2:51.76 - (15.0)
6.0 - 3:07.03 - (15.2)
7.31 45
7 9 Korea (59) Bo-Reum Kim (62) Seon-Yeong Noh (58) Ye Jin Jun KOR KOR 3:08.490.5 - 19.84 - (19.8)
1.0 - 34.55 - (14.7)
1.5 - 49.19 - (14.6)
2.0 - 1:03.89 - (14.7)
2.5 - 1:18.89 - (15.0)
3.0 - 1:34.37 - (15.4)
3.5 - 1:50.04 - (15.6)
4.0 - 2:05.94 - (15.8)
4.5 - 2:21.62 - (15.6)
5.0 - 2:37.41 - (15.7)
5.5 - 2:53.06 - (15.6)
6.0 - 3:08.49 - (15.4)
8.77 40
8 7 China (22) Xin Zhao (17) Jing Liu (18) Yichi Liu (20) Xin Zhang CHN CHN 3:10.520.5 - 19.50 - (19.5)
1.0 - 34.46 - (14.9)
1.5 - 49.22 - (14.7)
2.0 - 1:04.36 - (15.1)
2.5 - 1:19.55 - (15.1)
3.0 - 1:35.00 - (15.4)
3.5 - 1:50.37 - (15.3)
4.0 - 2:06.18 - (15.8)
4.5 - 2:22.37 - (16.1)
5.0 - 2:38.67 - (16.2)
5.5 - 2:54.64 - (15.9)
6.0 - 3:10.52 - (15.8)
10.80 35
9 8 Czech Republic (27) Nikola Zdráhalova (26) Martina Sábliková (25) Natalie Kerschbaummayr CZE CZE WDR